#timestamp,LO_Frequency,Hit,StdDev 
1506416415.3,286046995.2,N
1506416435.2,286046996.4,N
1506416455.9,286046994.9,N
1506416475.7,286046997.6,N
1506416495.6,286046997.4,N
1506416515.4,286046998.3,N
1506416535.2,286047001.1,N
1506416555.1,286047001.5,N
1506416556.0,286047001.5,N
1506416575.8,286046997.0,N
1506416595.6,286046998.5,N
1506416615.5,286046999.0,N
1506416635.3,286046997.4,N
1506416655.1,286046994.3,N
1506416675.8,286046994.9,N
1506416695.7,286046996.5,N
1506416715.5,286046997.4,N
1506416735.3,286046996.3,N
1506416755.2,286046996.0,N
1506416775.9,286046992.7,Y
1506416795.7,286046997.0,P
1506416815.6,286046999.2,N
1506416835.4,286047000.9,N
1506416855.2,286047001.5,N
1506416875.1,286046998.5,N
1506416876.0,286046998.5,N
1506416895.8,286046998.5,N
1506416915.6,286047001.2,N
1506416935.5,286046996.7,N
1506416955.3,286046997.3,N
1506416975.1,286046999.4,N
1506416995.9,286047002.1,N
1506417015.7,286046998.2,N
1506417035.5,286046998.7,N
1506417055.3,286046999.2,N
1506417075.2,286047000.7,N
1506417095.0,286046999.0,N
1506417095.9,286046999.0,N
1506417115.7,286046999.9,N
1506417135.6,286047002.7,N
1506417155.4,286047002.8,N
1506417175.2,286047001.6,N
1506417195.1,286047006.3,Y
1506417196.0,286047006.3,P
1506417215.8,286047005.8,N
1506417235.6,286047005.9,N
1506417255.5,286047004.0,N
1506417275.3,286047005.0,N
1506417295.1,286047005.6,N
1506417315.9,286047002.9,N
1506417335.7,286047007.3,Y
1506417355.5,286047002.0,P
1506417375.4,286047004.1,P
1506417395.2,286047004.8,P
1506417415.0,286047001.3,N
1506417415.9,286047001.3,N
1506417435.8,286047003.3,N
1506417455.6,286047001.7,N
1506417475.4,286046998.7,N
1506417495.3,286047000.7,N
1506417515.1,286046999.4,N
1506417516.0,286046999.4,N
1506417535.8,286046998.7,N
1506417555.7,286047001.1,N
1506417575.5,286047001.8,N
1506417595.3,286047002.3,N
1506417615.2,286047001.8,N
1506417635.9,286047000.2,N
1506417655.7,286047002.5,N
1506417675.5,286047003.9,N
1506417695.4,286047002.7,N
1506417715.2,286047003.3,N
1506417735.0,286047003.3,N
1506417735.9,286047003.3,N
1506417755.8,286047001.7,N
1506417775.6,286047002.7,N
1506417795.4,286046999.9,N
1506417815.3,286047003.4,N
1506417835.1,286047006.1,Y
1506417855.8,286047005.2,P
1506417875.7,286047004.2,N
1506417895.5,286047000.2,N
1506417915.3,286046996.6,N
1506417935.2,286046997.4,N
1506417955.9,286046999.8,N
1506417975.7,286047000.9,N
1506417995.6,286047000.1,N
1506418015.4,286046997.0,N
1506418035.2,286046995.5,N
1506418055.1,286046999.6,N
1506418056.0,286046999.6,N
1506418075.8,286046994.9,N
1506418095.6,286046996.1,N
1506418115.4,286046993.8,N
1506418135.3,286046990.3,Y
1506418155.1,286046990.8,P
1506418175.9,286046993.2,N
1506418195.7,286046991.6,N
1506418215.5,286046993.5,N
1506418235.3,286046994.7,N
1506418255.2,286046990.3,Y
1506418275.0,286047000.7,P
1506418275.9,286047000.7,N
1506418295.8,286047003.7,N
1506418315.6,286047004.0,N
1506418335.4,286047001.5,N
1506418355.2,286047002.7,N
1506418375.1,286046999.7,N
1506418376.0,286046999.7,N
1506418395.8,286047005.9,N
1506418415.6,286047007.7,N
1506418435.5,286047004.4,N
1506418455.3,286046999.8,N
1506418475.1,286047006.0,N
1506418495.9,286047004.7,N
1506418515.7,286047005.6,N
1506418535.5,286047005.4,N
1506418555.4,286047000.9,N
1506418575.2,286047000.3,N
1506418595.0,286047003.6,N
1506418595.9,286047003.6,N
1506418615.7,286047001.8,N
1506418635.6,286046998.2,N
1506418655.4,286047002.8,N
1506418675.2,286047001.1,N
1506418695.1,286047002.0,N
1506418696.0,286047002.0,N
1506418715.8,286047006.6,N
1506418735.6,286047006.9,N
1506418755.5,286047006.9,N
1506418775.3,286047006.5,N
1506418795.1,286047003.6,N
1506418815.9,286047003.8,N
1506418835.7,286047001.7,N
1506418855.5,286046999.7,N
1506418875.4,286047002.2,N
1506418895.2,286047002.5,N
1506418915.0,286047004.4,N
1506418915.9,286047004.4,N
1506418935.8,286047005.2,N
1506418955.6,286047003.4,N
1506418975.4,286047003.5,N
1506418995.2,286047005.7,N
1506419015.1,286047004.5,N
1506419016.0,286047004.5,N
1506419035.8,286047003.7,N
1506419055.6,286047006.3,N
1506419075.5,286047007.2,Y
1506419095.3,286047005.4,P
1506419115.1,286047001.8,N
1506419135.9,286047003.6,N
1506419155.7,286047003.7,N
1506419175.7,286046997.7,N
1506419195.5,286046995.3,N
1506419215.3,286046996.8,N
1506419235.2,286046999.6,N
1506419255.9,286046999.1,N
1506419275.7,286046997.7,N
1506419295.5,286046995.2,N
1506419315.4,286046999.2,N
1506419335.2,286047001.2,N
1506419355.0,286046997.0,N
1506419355.9,286046997.0,N
1506419375.8,286046998.0,N
1506419395.6,286046999.4,N
1506419415.4,286047000.5,N
1506419435.3,286046996.9,N
1506419455.1,286046998.9,N
1506419456.0,286046998.9,N
1506419475.8,286046999.4,N
1506419495.7,286046997.3,N
1506419515.5,286046997.0,N
1506419535.3,286047001.0,N
1506419555.2,286046998.1,N
1506419575.9,286046999.4,N
1506419595.7,286046997.9,N
1506419615.5,286046995.1,N
1506419635.4,286046998.3,N
1506419655.2,286047001.6,N
1506419675.0,286046998.2,N
1506419675.9,286046998.2,N
1506419695.8,286047001.5,N
1506419715.6,286046999.1,N
1506419735.4,286046999.6,N
1506419755.3,286047004.3,N
1506419775.1,286046999.9,N
1506419776.0,286046999.9,N
1506419795.8,286046999.7,N
1506419815.7,286047000.5,N
1506419835.5,286047002.1,N
1506419855.3,286047001.4,N
1506419875.2,286047004.4,N
1506419895.9,286046996.7,N
1506419915.7,286046999.5,N
1506419935.5,286047002.2,N
1506419955.4,286046997.0,N
1506419975.2,286046997.8,N
1506419995.0,286046999.4,N
1506419995.9,286046999.4,N
